Flag for U.S.A. Weather past 2 weeks in Wichita, Kansas, U.S.A.

Now
78 °F

Scattered clouds.


Feels Like: 79 °F
Forecast: 57 / 73 °F
Wind: 23 mph from South

Location: Wichita Mid-Continent Airport

Current Time: Apr 1, 2015 at 8:46:35 PM

Latest Report: Apr 1, 2015 at 7:53 PM


Visibility: 10 mi

Pressure: 29.57 "Hg

Humidity: 43%

Dew point: 54 °F

Location of WichitaLocation

Historic Weather in Wichita — Graph

°F

Wichita temperature yesterday

Maximum temperature yesterday: 83 °F (at 2:53 PM)
Minimum temperature yesterday: 45 °F (at 5:53 AM)
Average temperature yesterday: 66 °F

Past Weeks' High & Low Weather Summary

 TemperatureHumidityPressure
High86 °F (Apr 1, 3:53 PM)100% (Mar 19, 2:53 AM)30.29 "Hg (Mar 19, 2:53 AM)
Low31 °F (Mar 20, 6:53 AM)14% (Mar 31, 2:53 PM)29.57 "Hg (Apr 1, 7:53 PM)
Average55 °F59%30.02 "Hg
* Reported Mar 17 7:53 PM — Apr 1 7:53 PM, Wichita, Weather by CustomWeather, © 2015

Note: Actual official high and low records may vary slightly from our data, if they occured in-between our weather recording intervals... More about our weather records

Advertising

Wichita weather history for previous 24 hours

 ConditionsComfort  
Time TempWeatherWind HumidityBarometerVisibility
7:53 PM
Wed, Apr 1
78 °FScattered clouds.23 mph43%29.57 "Hg10 mi
6:53 PM80 °FScattered clouds.22 mph41%29.58 "Hg10 mi
5:53 PM83 °FPassing clouds.26 mph37%29.58 "Hg10 mi
4:53 PM86 °FPassing clouds.26 mph32%29.59 "Hg10 mi
3:53 PM86 °FPassing clouds.24 mph33%29.61 "Hg10 mi
2:53 PM85 °FPassing clouds.22 mph39%29.64 "Hg10 mi
1:53 PM82 °FPassing clouds.21 mph37%29.70 "Hg10 mi
12:53 PM78 °FPassing clouds.17 mph42%29.74 "Hg10 mi
11:53 AM75 °FScattered clouds.22 mph45%29.76 "Hg10 mi
10:53 AM73 °FScattered clouds.21 mph44%29.78 "Hg10 mi
9:53 AM66 °FScattered clouds.18 mph56%29.78 "Hg10 mi
8:53 AM58 °FScattered clouds.10 mph78%29.80 "Hg10 mi
7:53 AM54 °FPartly cloudy.8 mph80%29.79 "Hg7 mi
6:53 AM53 °FPartly cloudy.7 mph77%29.79 "Hg7 mi
5:53 AM56 °FPassing clouds.5 mph72%29.79 "Hg7 mi
4:53 AM57 °FPassing clouds.9 mph67%29.81 "Hg8 mi
3:53 AM61 °FPartly cloudy.8 mph56%29.83 "Hg10 mi
2:53 AM64 °FPassing clouds.13 mph50%29.83 "Hg8 mi
1:53 AM64 °FPassing clouds.10 mph49%29.82 "Hg7 mi
12:53 AM65 °FPassing clouds.12 mph47%29.83 "Hg10 mi
11:53 PM
Tue, Mar 31
65 °FPassing clouds.10 mph45%29.83 "Hg10 mi
10:53 PM65 °FPassing clouds.9 mph42%29.85 "Hg9 mi
9:53 PM69 °FPassing clouds.10 mph35%29.86 "Hg9 mi
8:53 PM68 °FPassing clouds.9 mph31%29.86 "Hg10 mi
Weather by CustomWeather, © 2015

See weather overviewHow to use our weather pages